TimeCST,TemperatureF,Dew PointF,Humidity,Sea Level PressureIn,VisibilityMPH,Wind Direction,Wind SpeedMPH,Gust SpeedMPH,PrecipitationIn,Events,Conditions,WindDirDegrees,DateUTC
12:53 AM,32.0,23.0,69,30.12,9.0,SW,4.6,-,0.00,Snow,Light Snow,230,2012-12-12 06:53:00
1:53 AM,32.0,24.1,73,30.14,9.0,Calm,Calm,-,0.00,Snow,Light Snow,0,2012-12-12 07:53:00
2:53 AM,32.0,24.1,73,30.14,9.0,South,3.5,-,0.00,,Overcast,190,2012-12-12 08:53:00
3:53 AM,30.9,25.0,79,30.14,10.0,South,5.8,-,N/A,,Mostly Cloudy,190,2012-12-12 09:53:00
4:53 AM,30.0,23.0,75,30.14,10.0,South,5.8,-,N/A,,Partly Cloudy,170,2012-12-12 10:53:00
5:53 AM,28.9,21.9,75,30.16,10.0,South,4.6,-,N/A,,Clear,190,2012-12-12 11:53:00
6:53 AM,28.9,21.0,72,30.17,10.0,South,8.1,-,N/A,,Scattered Clouds,180,2012-12-12 12:53:00
7:53 AM,28.9,21.0,72,30.18,10.0,South,10.4,-,N/A,,Clear,190,2012-12-12 13:53:00
8:53 AM,30.9,21.9,69,30.20,10.0,South,12.7,-,N/A,,Clear,190,2012-12-12 14:53:00
9:53 AM,32.0,23.0,69,30.22,10.0,South,10.4,-,N/A,,Clear,190,2012-12-12 15:53:00
10:53 AM,34.0,23.0,64,30.22,10.0,South,9.2,-,N/A,,Partly Cloudy,190,2012-12-12 16:53:00
11:53 AM,37.0,24.1,59,30.20,10.0,South,11.5,18.4,N/A,,Clear,180,2012-12-12 17:53:00
12:53 PM,39.9,25.0,55,30.18,10.0,South,11.5,20.7,N/A,,Clear,190,2012-12-12 18:53:00
1:53 PM,42.1,25.0,51,30.17,10.0,South,15.0,21.9,N/A,,Clear,190,2012-12-12 19:53:00
2:53 PM,42.1,26.1,53,30.17,10.0,South,12.7,-,N/A,,Clear,190,2012-12-12 20:53:00
3:53 PM,41.0,26.1,55,30.16,10.0,South,15.0,23.0,N/A,,Clear,180,2012-12-12 21:53:00
4:53 PM,39.9,26.1,58,30.16,10.0,South,15.0,21.9,N/A,,Clear,180,2012-12-12 22:53:00
5:53 PM,39.0,25.0,57,30.15,10.0,South,13.8,-,N/A,,Clear,180,2012-12-12 23:53:00
6:53 PM,37.9,26.1,62,30.16,10.0,South,15.0,-,N/A,,Clear,180,2012-12-13 00:53:00
7:53 PM,37.9,25.0,60,30.16,10.0,South,17.3,24.2,N/A,,Clear,180,2012-12-13 01:53:00
8:53 PM,37.0,26.1,65,30.17,10.0,South,13.8,23.0,N/A,,Clear,190,2012-12-13 02:53:00
9:53 PM,37.0,26.1,65,30.18,10.0,South,11.5,17.3,N/A,,Clear,190,2012-12-13 03:53:00
10:53 PM,37.0,26.1,65,30.19,10.0,South,11.5,19.6,N/A,,Clear,190,2012-12-13 04:53:00
11:53 PM,37.0,25.0,62,30.19,10.0,South,10.4,-,N/A,,Clear,190,2012-12-13 05:53:00